| time (UTC) | temp F | wind direction | speed MPH | gust MPH | rain 1hr in | rain 24hr in | rain mn in | humidity % | barometer mb |
| 20260504050522 | 52 | 0 | 0.0 | 0.0 | 0.00 | 0.00 | 0.00 | 89 | 1018.3 |
| 20260504045522 | 52 | 0 | 0.0 | 0.0 | 0.00 | 0.00 | 0.00 | 88 | 1018.3 |
| 20260504045022 | 52 | 0 | 0.0 | 0.0 | 0.00 | 0.00 | 0.00 | 88 | 1018.3 |
| 20260504044536 | 52 | 0 | 0.0 | 0.0 | 0.00 | 0.00 | 0.00 | 88 | 1018.3 |
| 20260504044023 | 52 | 0 | 0.0 | 0.0 | 0.00 | 0.00 | 0.00 | 87 | 1018.3 |
| 20260504043523 | 52 | 0 | 0.0 | 0.0 | 0.00 | 0.00 | 0.00 | 87 | 1018.3 |
| 20260504043035 | 52 | 0 | 0.0 | 0.0 | 0.00 | 0.00 | 0.00 | 87 | 1018.3 |
| 20260504042522 | 52 | 0 | 0.0 | 0.0 | 0.00 | 0.00 | 0.00 | 86 | 1018.3 |
| 20260504042022 | 52 | 0 | 0.0 | 0.0 | 0.00 | 0.00 | 0.00 | 86 | 1018.3 |
| 20260504041542 | 52 | 0 | 0.0 | 0.0 | 0.00 | 0.00 | 0.00 | 86 | 1018.3 |
| 20260504041023 | 52 | 0 | 0.0 | 0.0 | 0.00 | 0.00 | 0.00 | 86 | 1018.2 |
| 20260504040522 | 52 | 0 | 0.0 | 0.0 | 0.00 | 0.00 | 0.00 | 86 | 1018.2 |
| 20260504040044 | 52 | 0 | 0.0 | 0.0 | 0.00 | 0.00 | 0.00 | 87 | 1018.2 |
| 20260504035522 | 52 | 0 | 0.0 | 1.0 | 0.00 | 0.00 | 0.00 | 87 | 1018.1 |
| 20260504035020 | 52 | 0 | 0.0 | 1.0 | 0.00 | 0.00 | 0.00 | 88 | 1018.2 |
| 20260504034544 | 51 | 0 | 0.0 | 1.0 | 0.00 | 0.00 | 0.00 | 89 | 1018.1 |
| 20260504034022 | 51 | 0 | 0.0 | 1.0 | 0.00 | 0.00 | 0.00 | 90 | 1018.0 |
| 20260504033525 | 51 | 0 | 0.0 | 0.0 | 0.00 | 0.00 | 0.00 | 90 | 1018.0 |
| 20260504033033 | 51 | 0 | 0.0 | 0.0 | 0.00 | 0.00 | 0.00 | 91 | 1018.0 |
| 20260504032525 | 51 | 0 | 0.0 | 0.0 | 0.00 | 0.00 | 0.00 | 91 | 1018.0 |
| 20260504032024 | 51 | 0 | 0.0 | 0.0 | 0.00 | 0.00 | 0.00 | 92 | 1018.1 |
| 20260504031535 | 51 | 0 | 0.0 | 0.0 | 0.00 | 0.00 | 0.00 | 91 | 1017.9 |
| 20260504031022 | 51 | 0 | 0.0 | 0.0 | 0.00 | 0.00 | 0.00 | 91 | 1018.0 |
| 20260504030522 | 51 | 0 | 0.0 | 0.0 | 0.00 | 0.00 | 0.00 | 91 | 1017.9 |
| 20260504030037 | 51 | 0 | 0.0 | 0.0 | 0.00 | 0.00 | 0.00 | 91 | 1017.9 |
| 20260504025523 | 52 | 0 | 0.0 | 0.0 | 0.00 | 0.00 | 0.00 | 91 | 1017.9 |
| 20260504025023 | 52 | 0 | 0.0 | 0.0 | 0.00 | 0.00 | 0.00 | 91 | 1017.9 |
| 20260504024545 | 52 | 0 | 0.0 | 0.0 | 0.00 | 0.00 | 0.00 | 91 | 1017.9 |
| 20260504024022 | 52 | 0 | 0.0 | 0.0 | 0.00 | 0.00 | 0.00 | 91 | 1017.8 |
| 20260504023521 | 52 | 0 | 0.0 | 0.0 | 0.00 | 0.00 | 0.00 | 91 | 1018.0 |
| 20260504023035 | 52 | 0 | 0.0 | 0.0 | 0.00 | 0.00 | 0.00 | 91 | 1017.9 |
| 20260504022522 | 53 | 0 | 0.0 | 0.0 | 0.00 | 0.00 | 0.00 | 91 | 1017.8 |
| 20260504022022 | 53 | 0 | 0.0 | 0.0 | 0.00 | 0.00 | 0.00 | 91 | 1017.9 |
| 20260504021539 | 53 | 0 | 0.0 | 0.0 | 0.00 | 0.00 | 0.00 | 91 | 1017.8 |
| 20260504021020 | 53 | 0 | 0.0 | 0.0 | 0.00 | 0.00 | 0.00 | 91 | 1017.8 |
| 20260504020520 | 53 | 0 | 0.0 | 0.0 | 0.00 | 0.00 | 0.00 | 91 | 1017.7 |
| 20260504020037 | 54 | 0 | 0.0 | 0.0 | 0.00 | 0.00 | 0.00 | 90 | 1017.7 |
| 20260504015523 | 54 | 0 | 0.0 | 0.0 | 0.00 | 0.00 | 0.00 | 90 | 1017.6 |
| 20260504015022 | 54 | 0 | 0.0 | 0.0 | 0.00 | 0.00 | 0.00 | 89 | 1017.5 |
| 20260504014537 | 54 | 0 | 0.0 | 0.0 | 0.00 | 0.00 | 0.00 | 89 | 1017.4 |
| 20260504014021 | 54 | 0 | 0.0 | 0.0 | 0.00 | 0.00 | 0.00 | 88 | 1017.4 |
| 20260504013521 | 54 | 0 | 0.0 | 0.0 | 0.00 | 0.00 | 0.00 | 87 | 1017.3 |
| 20260504013046 | 55 | 0 | 0.0 | 0.0 | 0.00 | 0.00 | 0.00 | 86 | 1017.2 |
| 20260504012522 | 55 | 0 | 0.0 | 0.0 | 0.00 | 0.00 | 0.00 | 85 | 1017.2 |
| 20260504012022 | 55 | 0 | 0.0 | 0.0 | 0.00 | 0.00 | 0.00 | 86 | 1017.2 |
| 20260504011536 | 55 | 0 | 0.0 | 0.0 | 0.00 | 0.00 | 0.00 | 85 | 1017.1 |
| 20260504011022 | 56 | 0 | 0.0 | 0.0 | 0.00 | 0.00 | 0.00 | 84 | 1017.1 |
| 20260504010522 | 56 | 0 | 0.0 | 0.0 | 0.00 | 0.00 | 0.00 | 83 | 1017.1 |
| 20260504010035 | 56 | 0 | 0.0 | 0.0 | 0.00 | 0.00 | 0.00 | 82 | 1016.9 |
| 20260504005522 | 56 | 0 | 0.0 | 0.0 | 0.00 | 0.00 | 0.00 | 80 | 1016.9 |
| 20260504005022 | 57 | 0 | 0.0 | 0.0 | 0.00 | 0.00 | 0.00 | 81 | 1016.9 |
| 20260504004533 | 57 | 0 | 0.0 | 0.0 | 0.00 | 0.00 | 0.00 | 78 | 1016.7 |
| 20260504004022 | 58 | 0 | 0.0 | 0.0 | 0.00 | 0.00 | 0.00 | 78 | 1016.6 |
| 20260504003520 | 58 | 0 | 0.0 | 0.0 | 0.00 | 0.00 | 0.00 | 78 | 1016.7 |
| 20260504003035 | 58 | 0 | 0.0 | 0.0 | 0.00 | 0.00 | 0.00 | 77 | 1016.6 |
| 20260504002522 | 59 | 0 | 0.0 | 0.0 | 0.00 | 0.00 | 0.00 | 75 | 1016.7 |
| 20260504002023 | 59 | 0 | 0.0 | 0.0 | 0.00 | 0.00 | 0.00 | 74 | 1016.6 |
| 20260504001537 | 60 | 0 | 0.0 | 0.0 | 0.00 | 0.00 | 0.00 | 71 | 1016.5 |
| 20260504001022 | 60 | 0 | 0.0 | 0.0 | 0.00 | 0.00 | 0.00 | 70 | 1016.5 |
| 20260504000526 | 61 | 0 | 0.0 | 0.0 | 0.00 | 0.00 | 0.00 | 71 | 1016.4 |
| 20260504000040 | 61 | 0 | 0.0 | 0.0 | 0.00 | 0.00 | 0.00 | 69 | 1016.5 |
| 20260503235522 | 61 | 0 | 0.0 | 0.0 | 0.00 | 0.00 | 0.00 | 68 | 1016.4 |
| 20260503235023 | 62 | 0 | 0.0 | 0.0 | 0.00 | 0.00 | 0.00 | 66 | 1016.4 |
| 20260503234535 | 62 | 0 | 0.0 | 0.0 | 0.00 | 0.00 | 0.00 | 66 | 1016.4 |
| 20260503234023 | 62 | 0 | 0.0 | 0.0 | 0.00 | 0.00 | 0.00 | 66 | 1016.3 |
| 20260503233522 | 63 | 0 | 0.0 | 0.0 | 0.00 | 0.00 | 0.00 | 66 | 1016.3 |
| 20260503233032 | 63 | 0 | 0.0 | 0.0 | 0.00 | 0.00 | 0.00 | 62 | 1016.3 |
| 20260503232523 | 64 | 0 | 0.0 | 0.0 | 0.00 | 0.00 | 0.00 | 61 | 1016.3 |
| 20260503232022 | 64 | 0 | 0.0 | 0.0 | 0.00 | 0.00 | 0.00 | 61 | 1016.3 |
| 20260503231536 | 65 | 0 | 0.0 | 0.0 | 0.00 | 0.00 | 0.00 | 59 | 1016.3 |
| 20260503231024 | 65 | 0 | 0.0 | 0.0 | 0.00 | 0.00 | 0.00 | 56 | 1016.3 |
| 20260503230522 | 66 | 0 | 0.0 | 0.0 | 0.00 | 0.00 | 0.00 | 56 | 1016.3 |
| 20260503230040 | 66 | 0 | 0.0 | 0.0 | 0.00 | 0.00 | 0.00 | 56 | 1016.3 |
| 20260503225523 | 67 | 0 | 0.0 | 0.0 | 0.00 | 0.00 | 0.00 | 55 | 1016.3 |
| 20260503225023 | 67 | 0 | 0.0 | 0.0 | 0.00 | 0.00 | 0.00 | 51 | 1016.3 |
| 20260503224537 | 68 | 0 | 0.0 | 0.0 | 0.00 | 0.00 | 0.00 | 48 | 1016.3 |
| 20260503224022 | 68 | 0 | 0.0 | 0.0 | 0.00 | 0.00 | 0.00 | 51 | 1016.3 |
| 20260503223521 | 68 | 0 | 0.0 | 1.0 | 0.00 | 0.00 | 0.00 | 48 | 1016.3 |
| 20260503223036 | 68 | 0 | 0.0 | 1.0 | 0.00 | 0.00 | 0.00 | 47 | 1016.4 |
| 20260503222521 | 68 | 0 | 0.0 | 0.0 | 0.00 | 0.00 | 0.00 | 51 | 1016.3 |
| 20260503222022 | 69 | 0 | 0.0 | 0.0 | 0.00 | 0.00 | 0.00 | 49 | 1016.4 |
| 20260503221535 | 69 | 0 | 0.0 | 5.0 | 0.00 | 0.00 | 0.00 | 45 | 1016.4 |
| 20260503221024 | 69 | 0 | 0.0 | 5.0 | 0.00 | 0.00 | 0.00 | 44 | 1016.4 |
| 20260503220526 | 69 | 0 | 0.0 | 3.0 | 0.00 | 0.00 | 0.00 | 47 | 1016.4 |
| 20260503220033 | 69 | 0 | 0.0 | 3.0 | 0.00 | 0.00 | 0.00 | 45 | 1016.4 |
| 20260503215523 | 70 | 0 | 0.0 | 1.0 | 0.00 | 0.01 | 0.00 | 43 | 1016.4 |
| 20260503215023 | 70 | 0 | 0.0 | 2.0 | 0.00 | 0.01 | 0.00 | 43 | 1016.4 |
| 20260503214540 | 70 | 0 | 0.0 | 4.0 | 0.00 | 0.01 | 0.00 | 44 | 1016.4 |
| 20260503214026 | 70 | 0 | 1.0 | 4.0 | 0.00 | 0.01 | 0.00 | 42 | 1016.5 |
| 20260503213522 | 70 | 0 | 0.0 | 4.0 | 0.00 | 0.01 | 0.00 | 43 | 1016.5 |
| 20260503213039 | 70 | 0 | 0.0 | 4.0 | 0.00 | 0.01 | 0.00 | 42 | 1016.4 |
| 20260503212525 | 70 | 0 | 0.0 | 3.0 | 0.00 | 0.01 | 0.00 | 42 | 1016.3 |
| 20260503212022 | 70 | 0 | 0.0 | 7.0 | 0.00 | 0.01 | 0.00 | 43 | 1016.4 |
| 20260503211538 | 70 | 0 | 1.0 | 7.0 | 0.00 | 0.01 | 0.00 | 43 | 1016.4 |
| 20260503211023 | 70 | 0 | 0.0 | 5.0 | 0.00 | 0.01 | 0.00 | 42 | 1016.4 |
| 20260503210524 | 70 | 0 | 0.0 | 5.0 | 0.00 | 0.01 | 0.00 | 42 | 1016.3 |
| 20260503210035 | 71 | 0 | 0.0 | 6.0 | 0.00 | 0.01 | 0.00 | 42 | 1016.3 |
| 20260503205522 | 71 | 0 | 0.0 | 6.0 | 0.00 | 0.01 | 0.00 | 42 | 1016.5 |
| 20260503205023 | 71 | 0 | 1.0 | 6.0 | 0.00 | 0.01 | 0.00 | 41 | 1016.4 |
| 20260503204537 | 71 | 22 | 0.0 | 7.0 | 0.00 | 0.01 | 0.00 | 43 | 1016.5 |
| 20260503204022 | 71 | 0 | 1.0 | 7.0 | 0.00 | 0.01 | 0.00 | 42 | 1016.6 |
| 20260503203526 | 71 | 0 | 0.0 | 3.0 | 0.00 | 0.01 | 0.00 | 42 | 1016.6 |
| 20260503203041 | 71 | 0 | 0.0 | 7.0 | 0.00 | 0.01 | 0.00 | 42 | 1016.7 |
| 20260503202523 | 70 | 0 | 0.0 | 7.0 | 0.00 | 0.01 | 0.00 | 43 | 1016.7 |
| 20260503202021 | 70 | 0 | 2.0 | 7.0 | 0.00 | 0.01 | 0.00 | 41 | 1016.7 |
| 20260503201538 | 70 | 311 | 0.0 | 6.0 | 0.00 | 0.01 | 0.00 | 41 | 1016.8 |
| 20260503201023 | 70 | 0 | 1.0 | 8.0 | 0.00 | 0.01 | 0.00 | 41 | 1016.8 |
| 20260503200523 | 70 | 310 | 1.0 | 8.0 | 0.00 | 0.01 | 0.00 | 43 | 1016.9 |
| 20260503200036 | 70 | 0 | 0.0 | 3.0 | 0.00 | 0.01 | 0.00 | 42 | 1016.9 |
| 20260503195523 | 70 | 0 | 0.0 | 9.0 | 0.00 | 0.01 | 0.00 | 41 | 1017.1 |
| 20260503195021 | 70 | 257 | 1.0 | 10.0 | 0.00 | 0.01 | 0.00 | 44 | 1017.2 |
| 20260503194540 | 69 | 0 | 0.0 | 10.0 | 0.00 | 0.01 | 0.00 | 43 | 1017.3 |
| 20260503194022 | 69 | 0 | 2.0 | 10.0 | 0.00 | 0.01 | 0.00 | 40 | 1017.5 |
| 20260503193523 | 69 | 300 | 0.0 | 4.0 | 0.00 | 0.01 | 0.00 | 43 | 1017.5 |
| 20260503193043 | 70 | 0 | 0.0 | 4.0 | 0.00 | 0.01 | 0.00 | 41 | 1017.7 |
| 20260503192522 | 70 | 0 | 0.0 | 4.0 | 0.00 | 0.01 | 0.00 | 45 | 1017.8 |
| 20260503192025 | 69 | 257 | 0.0 | 7.0 | 0.00 | 0.01 | 0.00 | 43 | 1017.8 |
| 20260503191603 | 69 | 229 | 2.0 | 8.0 | 0.00 | 0.01 | 0.00 | 45 | 1017.9 |
| 20260503191024 | 69 | 0 | 0.0 | 8.0 | 0.00 | 0.01 | 0.00 | 44 | 1018.1 |
| 20260503190527 | 68 | 244 | 1.0 | 8.0 | 0.00 | 0.01 | 0.00 | 44 | 1017.9 |
| 20260503190039 | 68 | 0 | 1.0 | 9.0 | 0.00 | 0.01 | 0.00 | 43 | 1018.1 |
| 20260503185528 | 68 | 0 | 1.0 | 9.0 | 0.00 | 0.01 | 0.00 | 43 | 1018.2 |
| 20260503185023 | 68 | 310 | 3.0 | 9.0 | 0.00 | 0.01 | 0.00 | 46 | 1018.3 |
| 20260503184538 | 68 | 0 | 0.0 | 8.0 | 0.00 | 0.01 | 0.00 | 45 | 1018.3 |
| 20260503184020 | 68 | 0 | 0.0 | 8.0 | 0.00 | 0.01 | 0.00 | 45 | 1018.4 |
| 20260503183522 | 68 | 0 | 0.0 | 3.0 | 0.00 | 0.01 | 0.00 | 48 | 1018.5 |
| 20260503183035 | 68 | 0 | 0.0 | 7.0 | 0.00 | 0.01 | 0.00 | 49 | 1018.5 |
| 20260503182521 | 67 | 0 | 0.0 | 7.0 | 0.00 | 0.01 | 0.00 | 48 | 1018.5 |
| 20260503182021 | 67 | 252 | 1.0 | 6.0 | 0.00 | 0.01 | 0.00 | 45 | 1018.6 |
| 20260503181547 | 67 | 0 | 0.0 | 7.0 | 0.00 | 0.01 | 0.00 | 45 | 1018.8 |
| 20260503181021 | 67 | 0 | 1.0 | 7.0 | 0.00 | 0.01 | 0.00 | 48 | 1018.7 |
| 20260503180522 | 67 | 0 | 0.0 | 5.0 | 0.00 | 0.01 | 0.00 | 48 | 1018.6 |
| 20260503180039 | 66 | 0 | 0.0 | 9.0 | 0.00 | 0.01 | 0.00 | 47 | 1018.7 |
| 20260503175521 | 67 | 0 | 0.0 | 9.0 | 0.00 | 0.05 | 0.00 | 47 | 1018.8 |
| 20260503175118 | 66 | 306 | 1.0 | 8.0 | 0.00 | 0.05 | 0.00 | 47 | 1019.0 |
| 20260503174547 | 66 | 248 | 1.0 | 8.0 | 0.00 | 0.05 | 0.00 | 48 | 1019.0 |
| 20260503174023 | 66 | 227 | 2.0 | 9.0 | 0.00 | 0.05 | 0.00 | 49 | 1018.9 |
| 20260503173524 | 65 | 0 | 1.0 | 9.0 | 0.00 | 0.05 | 0.00 | 48 | 1019.1 |
| 20260503173035 | 65 | 0 | 0.0 | 5.0 | 0.00 | 0.05 | 0.00 | 50 | 1019.3 |
| 20260503172522 | 65 | 237 | 2.0 | 6.0 | 0.00 | 0.05 | 0.00 | 49 | 1019.2 |
| 20260503172022 | 65 | 0 | 0.0 | 6.0 | 0.00 | 0.05 | 0.00 | 51 | 1019.3 |
| 20260503171533 | 64 | 0 | 0.0 | 6.0 | 0.00 | 0.05 | 0.00 | 49 | 1019.5 |
| 20260503171023 | 64 | 246 | 0.0 | 5.0 | 0.00 | 0.05 | 0.00 | 49 | 1019.6 |
| 20260503170524 | 64 | 0 | 0.0 | 5.0 | 0.00 | 0.05 | 0.00 | 51 | 1019.6 |
| 20260503150524 | 60 | 0 | 0.0 | 7.0 | 0.00 | 0.15 | 0.00 | 55 | 1020.4 |
| 20260503131022 | 50 | 0 | 0.0 | 1.0 | 0.00 | 0.30 | 0.00 | 95 | 1020.0 |
| 20260503130523 | 49 | 0 | 0.0 | 2.0 | 0.00 | 0.30 | 0.00 | 98 | 1020.1 |
| 20260503110523 | 41 | 0 | 0.0 | 0.0 | 0.00 | 0.34 | 0.00 | 98 | 1019.0 |
| 20260503081540 | 44 | 0 | 0.0 | 0.0 | 0.00 | 0.44 | 0.00 | 98 | 1016.9 |
| 20260503081020 | 44 | 0 | 0.0 | 0.0 | 0.00 | 0.44 | 0.00 | 98 | 1016.9 |
| 20260503080523 | 44 | 0 | 0.0 | 0.0 | 0.00 | 0.44 | 0.00 | 98 | 1016.8 |